x

Buoy E01 - Central Maine Shelf (44032) Wave Buoy

3:04 - Mon 25th Jul 2016 All times are EDT. -4 hours from GMT.

  • Sig Wave height 1.6ft
  • Peak Period 6s
  • Wind
    4mph, 7mph gusts
  • Sea Temp 63°f
  • Ar Temp 67°f
  • Sea Pressure 1011.2mb
  • Buoy E01 - Central Maine Shelf
  • Buoy E01 - Central Maine Shelf

More Historic Weather Station data

Upgrade to MSW Pro to gain access to the past 30 days of data for over 8000 Wavebouys and Weather Stations around the globe.

Join Pro

Comparision Forecast

View Surf forecast
   
Seg 07/25 3:04 1.6ft 6s 4 7 mph 1011.2mb 63f 67f
2:04 1.6ft 6s 4
mph
1011.9mb 63f 68f
1:04 1.6ft 8s 2
mph
1012.7mb 62f 68f
12:04 1.6ft 8s 2 4 mph 1013.1mb 62f 66f
11:04 1.6ft 6s 4 7 mph 1013.3mb 63f 65f
10:04 1.6ft 8s 2 4 mph 1013.5mb 62f 65f
8:04 1.6ft 8s 2 4 mph 1014mb 60f 63f
7:04 1.6ft 6s 2 4 mph 1013.9mb 61f 62f
6:04 1.6ft 8s 4 7 mph 1013.6mb 60f 62f
5:04 2ft 6s 7 9 mph 1013.6mb 61f 63f
4:04 2.5ft 6s 4
mph
1013.1mb 61f 62f
3:04 2.5ft 6s 4
mph
1013.4mb 61f 62f
2:04 2.5ft 8s 7 9 mph 1013.8mb 60f 63f
1:04 2ft 6s 7 9 mph 1014.1mb 60f 63f
12:04 2ft 8s 4 7 mph 1014.2mb 61f 63f
Dom 07/24 11:04 2.5ft 8s 4
mph
1014.6mb 61f 63f
10:04 2ft 8s 7
mph
1014.5mb 61f 64f
9:04 2ft 8s 7
mph
1014.4mb 62f 64f
8:04 2ft 8s 9
mph
1013.8mb 62f 64f
7:04 2.5ft 8s 9
mph
1012.9mb 60f 65f
6:04 2ft 8s 11 13 mph 1012.5mb 61f 67f
5:04 2.5ft 8s 9 11 mph 1012.2mb 62f 66f
4:04 2.5ft 8s 11
mph
1012.1mb 64f 66f
3:04 2ft 8s 9 11 mph 1012.3mb 65f 67f
2:04 2.5ft 6s 7 9 mph 1012.3mb 62f 67f
1:04 2.5ft 8s 7
mph
1012.4mb 61f 67f
12:04 2.5ft 8s 4 7 mph 1012.4mb 61f 66f
11:04 2ft 8s 4
mph
1012.4mb 60f 66f
10:04 1.6ft 8s 4 7 mph 1012.3mb 61f 65f
9:04 1.6ft 8s 4
mph
1012.2mb 60f 65f
8:04 1.6ft 8s 7 9 mph 1012.2mb 60f 63f
7:04 1.6ft 8s 11
mph
1011.7mb 60f 63f
6:04 2ft 6s 9 11 mph 1010.8mb 60f 63f
5:04 2ft 6s 7
mph
1010.1mb 60f 62f
4:04 2.5ft 8s 7 9 mph 1009.6mb 60f 63f
3:04 2.5ft 6s 9 11 mph 1009.2mb 60f 63f
2:04 2.5ft 6s 11 13 mph 1008.9mb 61f 64f
1:04 2.5ft 6s 9 11 mph 1009mb 61f 64f
12:04 2.5ft 6s 9 11 mph 1009.2mb 61f 63f
Sáb 07/23 11:04 2.5ft 8s 11
mph
1008.5mb 62f 64f
10:04 2.5ft 8s 11 13 mph 1008.4mb 62f 64f
9:04 2.5ft 8s 9 11 mph 1008mb 62f 64f
8:04 2.5ft 6s 9
mph
1006.8mb 62f 64f
7:04 3ft 6s 13 16 mph 1006.5mb 62f 65f
6:04 3ft 5s 13 16 mph 1006.6mb 62f 66f
5:04 2.5ft 5s 11 13 mph 1006.5mb 62f 66f
4:04 2.5ft 5s 11
mph
1005.3mb 62f 69f
3:04 2.5ft 5s 9 11 mph 1005.6mb 63f 68f
2:04 2.5ft 6s 11
mph
1006mb 62f 67f
1:04 2.5ft 5s 9 11 mph 1006.2mb 62f 66f
12:04 3ft 5s 7 9 mph 1006.5mb 62f 64f
11:04 3.5ft 6s 7 9 mph 1006.6mb 62f 64f
10:04 3.5ft 6s 4 7 mph 1006.7mb 62f 65f
9:04 3ft 6s 9 11 mph 1006.6mb 61f 64f
8:04 3.5ft 6s 9
mph
1006.8mb 61f 63f
7:04 3.5ft 6s 11 13 mph 1006.4mb 61f 63f
6:04 3.5ft 6s 4 7 mph 1005.6mb 61f 63f
5:04 4.5ft 8s 4 7 mph 1004.6mb 61f 63f
4:04 4.5ft 8s 9 11 mph 1005.4mb 61f 65f
3:04 4.5ft 6s 20 22 mph 1006.1mb 61f 66f
2:04 4ft 6s 7 9 mph 1004.9mb 62f 65f
1:04 4.5ft 6s 4
mph
1004.8mb 62f 66f
12:04 4.5ft 6s 7 9 mph 1005.2mb 62f 66f
Sex 07/22 11:04 5.5ft 8s 25 38 mph 1006.9mb 62f 67f
10:04 4.5ft 8s 11 13 mph 1005.4mb 62f 67f
9:04 5ft 6s 13 20 mph 1005.2mb 62f 71f
8:04 5ft 6s 13 16 mph 1004.7mb 63f 66f
7:04 4.5ft 6s 11 13 mph 1004.5mb 63f 67f
6:04 4.5ft 5s 13 16 mph 1004.5mb 63f 67f
5:04 4.5ft 6s 16 18 mph 1004.6mb 63f 67f
4:04 4.5ft 5s 13 16 mph 1004.9mb 63f 67f
3:04 5ft 6s 20 22 mph 1005mb 62f 68f
2:04 5.5ft 6s 18 20 mph 1005.7mb 62f 67f
1:04 5ft 6s 16 20 mph 1006.4mb 61f 66f
12:04 4.5ft 6s 16 18 mph 1007.1mb 61f 65f
11:04 5ft 6s 18 20 mph 1007.5mb 61f 65f
10:04 4.5ft 6s 18 20 mph 1008.1mb 61f 65f
9:04 4.5ft 5s 16 18 mph 1008.9mb 61f 65f
8:04 4.5ft 5s 16 20 mph 1009.7mb 61f 65f
7:04 3.5ft 5s  -  mph - 60f -
6:04 3.5ft 5s 18
mph
1009.8mb 61f 65f
5:04 3ft 5s 16 18 mph 1010.1mb 60f 65f
4:04 2.5ft 5s 16 20 mph 1010.4mb 60f 66f
3:04 2.5ft 5s 16
mph
1010.9mb 60f 66f
2:04 2ft 4s 13
mph
1011.5mb 61f 65f
1:04 1.6ft 4s 11 13 mph 1012mb 61f 65f
12:04 1.6ft 4s 13 16 mph 1012.8mb 61f 66f
Qui 07/21 11:04 2ft 4s 11 13 mph 1013.4mb 62f 65f
10:04 2.5ft 4s 9 11 mph 1014.2mb 61f 65f
9:04 1.6ft 8s 11 13 mph 1014.2mb 61f 65f